Terminal Aerodrome Forecast
Issued by NWS Des Moines, IA

Home | Current Version | Previous Version | Text Only | Print | Product List | Glossary On
Versions: 1 2 3 4 5 6 7 8 9 10 11 12 13 14 15 16 17 18 19 20 21 22 23 24 25 26 27 28 29 30 31 32 33 34 35 36 37 38 39 40 41 42 43 44 45 46 47 48 49
000
FTUS43 KDMX 251740
TAFDSM
TAF
KDSM 251740Z 2518/2618 20012G21KT P6SM SCT030
     FM252100 20012G20KT P6SM BKN040
     FM260000 19010KT P6SM VCTS BKN040CB
     FM260800 20006KT 6SM BR VCSH BKN035
     FM261200 18007KT P6SM BKN050=

USA.gov is the U.S. government's official web portal to all federal, state and local government web resources and services.